Regional Weather Roundup
Issued by NWS

Home | Current Version | Previous Version | Text Only | Print | Product List | Glossary On
Versions: 1 2 3 4 5 6 7 8 9 10 11 12 13 14 15 16 17 18 19 20 21 22 23 24 25 26 27 28 29 30 31 32 33 34 35 36 37 38 39 40 41 42 43 44 45 46 47 48 49 50
746
ASUS44 KJAN 162303
RWRMS

MISSISSIPPI HOURLY WEATHER ROUNDUP
NATIONAL WEATHER SERVICE JACKSON MS
600 PM CDT WED APR 16 2014

NOTE: "FAIR: INDICATES FEW OR NO CLOUDS BELOW 12,000 FEET WITH NO
SIGNIFICANT WEATHER AND/OR OBSTRUCTIONS TO VISIBILITY.

MSZ001>002-007>008-010>013-018>021-025>028-034>036-170000-
NORTHWEST MISSISSIPPI

CITY           SKY/WX    TMP DP  RH WIND       PRES   REMARKS
CLARKSDALE       N/A     59  34  38 CALM      30.13F
CLEVELAND      FAIR      58  37  45 S7        30.12F
GREENWOOD      SUNNY     62  34  35 W5        30.12S
GREENVILLE     PTSUNNY   59  38  45 S7        30.12F
GRENADA        FAIR      61  32  33 E3        30.12S
OLIVE BRANCH   PTSUNNY   61  27  27 SE8       30.11F
OXFORD         FAIR      61  25  25 S6        30.14S
TUNICA         PTCLDY    59  32  36 S7        30.12F
$$

MSZ003>006-009-014>017-022>024-029>033-037>039-170000-
NORTHEAST MISSISSIPPI

CITY           SKY/WX    TMP DP  RH WIND       PRES   REMARKS
BELMONT        FAIR      64  29  27 SE7       30.12F
COLUMBUS AFB   SUNNY     65  32  28 S8        30.13F
CORINTH        FAIR      63  23  22 CALM      30.12F
GOLDN TRIANGLE SUNNY     63  32  31 S9        30.16F
STARKVILLE     FAIR      61  32  33 SE7       30.13S
TUPELO         SUNNY     64  31  28 W5        30.13S
$$

MSZ040-058-170000-
CENTRAL MISSISSIPPI

CITY           SKY/WX    TMP DP  RH WIND       PRES   REMARKS
JACKSON INTL   PTSUNNY   64  31  28 S5        30.12R
JACKSON HAWKNS SUNNY     64  28  25 CALM      30.12S
MERIDIAN KEY   SUNNY     65  32  29 S7        30.12S
MERIDIAN NAS   SUNNY     64  34  32 E8        30.13S
RAYMOND        FAIR      64  59  82 MISG      30.12S
VICKSBURG      MOSUNNY   64  36  35 SE3       30.12F
$$

MSZ059>079-170000-
SOUTH MISSISSIPPI

CITY           SKY/WX    TMP DP  RH WIND       PRES   REMARKS
BROOKHAVEN     FAIR      64  34  32 CALM      30.12S
COLUMBIA       FAIR      64  34  32 MISG      30.10F
HATTIESBURG    SUNNY     67  31  26 CALM      30.13S
MCCOMB         SUNNY     62  34  35 S3        30.11S
NATCHEZ        MOSUNNY   64  36  34 SE3       30.10F
PINE BELT      SUNNY     64  30  27 SE6       30.14S
$$

MSZ080>082-170000-
COASTAL MISSISSIPPI

CITY           SKY/WX    TMP DP  RH WIND       PRES   REMARKS
BAY ST LOUIS   SUNNY     61  39  44 S8        30.14F
BILOXI         MOSUNNY   57  42  56 S6        30.15S
PASCAGOULA     SUNNY     59  44  57 S6        30.15S
GULFPORT       MOSUNNY   58  43  57 SE9       30.14F
$$



USA.gov is the U.S. government's official web portal to all federal, state and local government web resources and services.